This demonstration page uses our WeatherBlox Daily Observations layout. Learn more.

Left ArrowRight Arrow

Hourly Observations for April 10, 2015

Temp ( °F °C ) Dew Point ( °F °C ) Humidity (%) Winds ( mph kmh ) Pressure ( in mb ) Visibility ( mi km ) Precip ( " mm )
12:16 am 00:16 Clear 70 21 52 11 53 53 S 13 20 29.65 1004 10 16.0934 N/A
12:35 am 00:35 Partly Cloudy 70 21 52 11 53 53 S 9 15 29.62 1003 10 16.0934 N/A
12:56 am 00:56 Partly Cloudy 70 21 52 11 53 53 S 8 13 29.62 1003 10 16.0934 N/A
1:16 am 01:16 Mostly Cloudy 68 20 54 12 60 60 SSW 8 13 29.65 1004 10 16.0934 N/A
1:35 am 01:35 Cloudy 66 19 57 14 73 73 S 9 15 29.65 1004 4 6.43736 N/A
1:56 am 01:56 Cloudy 66 19 61 16 83 83 SSW 17 28 29.65 1004 7 11.26538 N/A
2:16 am 02:16 Mostly Cloudy 63 17 63 17 100 100 SW 20 31 29.71 1006 10 16.0934 N/A
2:35 am 02:35 Mostly Cloudy 63 17 63 17 100 100 SW 14 22 29.71 1006 5 8.0467 N/A
2:56 am 02:56 Mostly Cloudy 63 17 N/A N/A WSW 16 26 29.68 1005 10 16.0934 N/A
3:16 am 03:16 Cloudy 61 16 N/A N/A WSW 16 26 29.71 1006 10 16.0934 N/A
3:35 am 03:35 Cloudy 59 15 48 9 68 68 W 22 35 29.71 1006 10 16.0934 N/A
3:56 am 03:56 Cloudy 57 14 48 9 72 72 W 22 35 29.74 1007 10 16.0934 N/A
4:16 am 04:16 Mostly Cloudy 55 13 46 8 72 72 W 24 39 29.74 1007 10 16.0934 N/A
4:35 am 04:35 Mostly Cloudy 54 12 45 7 72 72 W 20 31 29.74 1007 10 16.0934 N/A
4:56 am 04:56 Mostly Cloudy 54 12 37 3 54 54 W 24 39 29.74 1007 10 16.0934 N/A
5:16 am 05:16 Mostly Cloudy 52 11 37 3 58 58 W 22 35 29.74 1007 10 16.0934 N/A
5:35 am 05:35 Cloudy 50 10 36 2 58 58 W 26 43 29.74 1007 10 16.0934 N/A
5:56 am 05:56 Cloudy 50 10 36 2 58 58 W 26 43 29.77 1008 10 16.0934 N/A
6:16 am 06:16 Cloudy 50 10 36 2 58 58 W 25 41 29.77 1008 10 16.0934 N/A
6:35 am 06:35 Cloudy 48 9 34 1 58 58 W 26 43 29.83 1010 10 16.0934 N/A
6:56 am 06:56 Cloudy 48 9 32 0 54 54 W 25 41 29.83 1010 10 16.0934 N/A
7:16 am 07:16 Mostly Cloudy 48 9 34 1 58 58 W 22 35 29.83 1010 10 16.0934 N/A
7:35 am 07:35 Cloudy 46 8 32 0 57 57 W 24 39 29.85 1011 10 16.0934 N/A
7:56 am 07:56 Mostly Cloudy 45 7 30 -1 57 57 W 31 50 29.88 1012 10 16.0934 N/A
8:15 am 08:15 Cloudy 45 7 30 -1 57 57 W 22 35 29.88 1012 10 16.0934 N/A
8:36 am 08:36 Cloudy 45 7 30 -1 57 57 W 22 35 29.91 1013 10 16.0934 N/A
8:56 am 08:56 Cloudy 45 7 30 -1 57 57 W 26 43 29.94 1014 10 16.0934 N/A
9:15 am 09:15 Mostly Cloudy 45 7 32 0 61 61 W 26 43 29.94 1014 10 16.0934 N/A
9:36 am 09:36 Mostly Cloudy 45 7 32 0 61 61 WNW 22 35 29.97 1015 10 16.0934 N/A
9:56 am 09:56 Mostly Cloudy 45 7 32 0 61 61 WNW 23 37 29.97 1015 10 16.0934 N/A
10:15 am 10:15 Cloudy 45 7 32 0 61 61 WNW 26 43 29.97 1015 10 16.0934 N/A
10:36 am 10:36 Cloudy 46 8 32 0 57 57 WNW 20 31 30 1016 10 16.0934 N/A
10:56 am 10:56 Mostly Cloudy 48 9 32 0 54 54 WNW 23 37 30 1016 10 16.0934 N/A
11:15 am 11:15 Mostly Cloudy 48 9 34 1 58 58 W 24 39 30.03 1017 10 16.0934 N/A
11:36 am 11:36 Mostly Cloudy 50 10 34 1 54 54 W 21 33 30.03 1017 10 16.0934 N/A
11:56 am 11:56 Partly Cloudy 52 11 34 1 50 50 W 18 30 30.03 1017 10 16.0934 N/A
12:15 pm 12:15 Sunny 52 11 32 0 47 47 WNW 18 30 30.03 1017 10 16.0934 N/A
12:36 pm 12:36 Sunny 54 12 32 0 44 44 W 16 26 30 1016 10 16.0934 N/A
12:56 pm 12:56 Sunny 55 13 32 0 41 41 W 15 24 30 1016 10 16.0934 N/A
1:16 pm 13:16 Sunny 55 13 30 -1 38 38 W 17 28 30 1016 10 16.0934 N/A
1:36 pm 13:36 Sunny 57 14 30 -1 36 36 W 15 24 30 1016 10 16.0934 N/A
1:55 pm 13:55 Sunny 57 14 28 -2 33 33 W 15 24 30 1016 10 16.0934 N/A
2:16 pm 14:16 Sunny 59 15 28 -2 31 31 W 18 30 30 1016 10 16.0934 N/A
2:36 pm 14:36 Sunny 59 15 28 -2 31 31 W 16 26 30 1016 10 16.0934 N/A
2:55 pm 14:55 Sunny 61 16 28 -2 29 29 W 20 31 30 1016 10 16.0934 N/A
3:16 pm 15:16 Sunny 61 16 28 -2 29 29 WSW 23 37 30 1016 10 16.0934 N/A
3:36 pm 15:36 Sunny 63 17 23 -5 22 22 W 17 28 30 1016 10 16.0934 N/A
3:55 pm 15:55 Sunny 63 17 25 -4 24 24 W 21 33 30 1016 10 16.0934 N/A
4:16 pm 16:16 Sunny 63 17 19 -7 19 19 WSW 22 35 30 1016 10 16.0934 N/A
4:36 pm 16:36 Sunny 63 17 23 -5 22 22 W 17 28 29.97 1015 10 16.0934 N/A
4:55 pm 16:55 Sunny 64 18 19 -7 18 18 WSW 23 37 29.97 1015 10 16.0934 N/A
5:16 pm 17:16 Sunny 64 18 21 -6 19 19 WSW 26 43 29.97 1015 10 16.0934 N/A
5:36 pm 17:36 Sunny 63 17 19 -7 19 19 W 20 31 29.97 1015 10 16.0934 N/A
5:55 pm 17:55 Sunny 64 18 19 -7 18 18 W 24 39 29.97 1015 10 16.0934 N/A
6:16 pm 18:16 Sunny 64 18 19 -7 18 18 W 20 31 29.97 1015 10 16.0934 N/A
6:36 pm 18:36 Sunny 63 17 18 -8 17 17 W 23 37 29.97 1015 10 16.0934 N/A
6:56 pm 18:56 Sunny 63 17 19 -7 19 19 WSW 21 33 29.97 1015 10 16.0934 N/A
7:16 pm 19:16 Sunny 63 17 19 -7 19 19 W 21 33 29.97 1015 10 16.0934 N/A
7:35 pm 19:35 Sunny 61 16 21 -6 22 22 W 20 31 29.97 1015 10 16.0934 N/A
7:56 pm 19:56 Sunny 61 16 19 -7 20 20 WSW 21 33 29.97 1015 10 16.0934 N/A
8:15 pm 20:15 Sunny 59 15 21 -6 23 23 WSW 14 22 29.97 1015 10 16.0934 N/A
8:36 pm 20:36 Partly Cloudy 59 15 21 -6 23 23 WSW 15 24 29.97 1015 10 16.0934 N/A
8:56 pm 20:56 Partly Cloudy 59 15 23 -5 25 25 WSW 22 35 29.97 1015 10 16.0934 N/A
9:15 pm 21:15 Partly Cloudy 59 15 25 -4 27 27 W 16 26 30 1016 10 16.0934 N/A
9:36 pm 21:36 Partly Cloudy 55 13 23 -5 28 28 WNW 21 33 30.03 1017 10 16.0934 N/A
9:56 pm 21:56 Clear 52 11 18 -8 26 26 WNW 20 31 30.09 1019 10 16.0934 N/A
10:15 pm 22:15 Mostly Cloudy 52 11 14 -10 22 22 NW 20 31 30.12 1020 10 16.0934 N/A
10:36 pm 22:36 Mostly Cloudy 50 10 18 -8 28 28 NNW 15 24 30.12 1020 10 16.0934 N/A
10:56 pm 22:56 Partly Cloudy 48 9 19 -7 32 32 NW 16 26 30.15 1021 10 16.0934 N/A
11:15 pm 23:15 Partly Cloudy 46 8 19 -7 34 34 NW 14 22 30.15 1021 10 16.0934 N/A
11:36 pm 23:36 Clear 46 8 21 -6 37 37 NW 13 20 30.15 1021 10 16.0934 N/A
11:56 pm 23:56 Clear 45 7 21 -6 39 39 NW 10 17 30.15 1021 10 16.0934 N/A

Powered by AerisWeather